Location: maison
(44.0032°N, 4.9445°E)
Time: 07:01:06
(UTC+01:00)

X-37B - Visible Passes

Search period start: 29 October 2020 00:00
Search period end: 08 November 2020 00:00
Orbit: 382 x 392 km, 45.0° (Epoch: 15 October)

Date Brightness Start Highest point End Pass type
(mag) Time Alt. Az. Time Alt. Az. Time Alt. Az.
31 Oct 3.6 06:21:54 10° S 06:23:42 14° SE 06:25:31 10° ESE visible
02 Nov 2.8 06:00:20 10° SSW 06:02:57 24° SSE 06:05:35 10° E visible
03 Nov 3.4 05:04:29 14° SSE 05:04:36 14° SE 05:06:23 10° ESE visible
03 Nov 1.1 06:37:38 10° WSW 06:40:46 59° SSE 06:43:56 10° E visible
04 Nov 1.8 05:41:18 29° SSW 05:42:16 38° SSE 05:45:17 10° E visible
05 Nov 3.7 04:45:41 15° ESE 04:45:41 15° ESE 04:46:28 10° E visible
05 Nov 0.6 06:17:58 18° WSW 06:20:13 84° SSE 06:23:25 10° ENE visible
06 Nov 1.5 05:22:16 48° ESE 05:22:16 48° ESE 05:24:49 10° E visible
07 Nov 0.5 05:58:45 42° W 05:59:42 78° N 06:02:54 10° E visible
